Wind_Speed
15 18 19 20 22 23 25 27 29 31 34 36 36 35 37 40 40 41 41 41 42 42 42 40 38 37 37 36 35 35 34 32 31 30 30 30 30 29 27 25 24 25 25 25
15 18 17 19 21 24 26 28 30 32 35 37 38 37 38 41 42 42 42 43 44 44 43 43 41 40 39 38 38 37 36 35 34 34 34 34 34 32 29 27 26 26 27 27
15 16 17 20 23 24 26 30 32 33 34 35 38 39 38 38 41 42 43 43 43 44 43 42 41 40 39 39 39 38 38 37 37 36 36 36 36 34 32 30 30 30 30 30
14 15 18 21 24 26 28 31 33 34 34 34 35 37 35 33 37 40 41 40 41 41 40 40 39 39 38 38 38 38 38 38 38 37 37 37 38 36 35 34 33 32 33 32
16 17 19 23 25 27 28 29 30 31 33 33 31 31 30 32 36 36 37 37 37 36 36 36 36 36 36 36 36 37 37 37 37 38 38 38 40 40 39 37 37 36 36 36
17 18 20 24 26 27 27 28 29 29 29 28 26 26 28 31 35 36 36 36 35 33 32 33 33 34 34 35 35 35 36 36 36 36 36 37 39 39 40 41 40 39 39 39
22 22 23 24 25 26 27 28 28 25 22 20 21 22 26 28 31 35 37 37 36 34 32 31 31 31 32 33 34 35 35 34 34 35 36 36 37 40 41 39 39 41 41 41
20 25 24 23 23 24 24 25 25 22 19 17 18 21 23 26 28 30 34 36 35 33 32 31 31 30 30 31 32 33 34 35 35 35 36 37 38 39 40 39 39 41 39 38
20 22 21 21 22 21 21 23 22 19 16 14 16 17 20 20 22 24 26 27 27 29 30 30 31 31 30 30 30 31 33 34 35 35 35 35 36 37 37 38 38 37 38 37
19 20 19 19 19 19 20 21 20 17 15 14 15 17 17 17 18 19 21 21 21 21 23 25 26 27 28 29 29 29 30 31 31 31 32 33 33 33 35 35 34 33 33 33
18 18 18 18 19 19 19 20 19 16 15 15 15 16 17 18 16 15 14 14 15 16 15 16 19 21 23 24 25 25 25 25 26 27 28 29 29 28 29 29 29 28 27 26
17 17 16 16 17 18 19 19 18 17 16 16 15 17 16 16 14 13 10 8 7 9 10 12 13 14 15 16 17 18 18 19 19 20 21 22 21 21 20 21 21 20 19 17
18 16 15 15 17 18 19 18 18 17 16 16 17 16 15 13 12 10 9 6 5 3 4 5 6 6 7 8 9 10 10 11 11 11 10 10 10 11 11 12 12 11 10 10
18 17 17 17 17 18 18 18 17 17 16 16 18 18 17 15 13 12 12 10 7 7 5 4 3 2 1 2 1 2 2 2 2 2 3 3 3 3 3 3 4 4 5 7
18 17 17 16 16 17 18 18 18 17 17 17 18 19 19 18 17 16 16 16 15 15 14 13 11 10 10 10 10 9 9 9 8 7 6 5 4 3 3 3 3 4 5 7
18 18 17 16 17 17 18 18 18 17 17 17 17 18 19 19 19 19 19 19 19 20 20 19 17 15 14 14 13 13 12 11 10 9 8 7 6 5 5 5 6 8 9 11
18 18 18 18 18 17 18 18 18 17 17 17 17 18 19 19 21 21 20 20 19 18 18 19 19 18 17 16 15 14 12 12 11 10 9 8 7 7 7 8 9 10 11 13
18 19 19 18 18 19 18 17 17 17 16 17 18 18 19 19 19 20 20 20 19 18 18 17 17 16 16 16 15 14 14 13 12 11 10 10 9 9 9 10 10 11 12 13
17 18 19 19 19 18 17 16 16 15 15 16 17 17 17 17 18 19 19 19 19 18 18 18 17 16 16 16 15 15 14 14 14 13 13 13 12 12 12 12 12 13 13 14
16 17 18 19 19 19 18 16 14 14 14 15 15 16 17 17 18 19 19 18 18 18 17 17 17 17 16 16 16 15 15 15 15 15 15 14 14 14 14 14 14 14 14 14
15 16 17 18 18 18 18 16 15 13 13 13 14 15 16 17 18 18 18 17 17 17 17 17 17 17 17 16 16 16 16 16 17 17 16 16 17 17 17 16 16 16 15 15
16 16 17 17 17 16 16 16 15 13 13 12 13 14 15 16 17 17 17 16 16 16 16 17 17 17 17 17 17 17 17 17 17 18 18 18 19 19 19 19 19 18 17 16
15 16 16 16 16 16 15 15 14 13 12 12 12 13 13 14 15 15 16 16 16 16 16 16 16 16 16 17 17 17 17 18 18 18 19 19 20 20 20 20 20 20 19 18
13 15 15 15 15 15 15 14 14 13 12 11 11 11 12 13 13 14 15 15 15 15 16 16 16 16 16 16 16 16 17 17 18 18 19 20 20 21 21 21 21 21 20 20
11 12 14 14 15 14 15 14 14 13 12 11 10 10 11 11 12 12 13 13 14 15 15 15 15 15 15 15 16 16 17 17 17 18 19 20 20 21 21 22 22 22 21 21
9 10 11 12 13 14 14 14 14 13 12 11 10 9 9 9 10 10 11 12 12 13 14 14 15 15 15 15 16 16 16 16 17 18 18 19 20 20 21 22 22 23 23 22
Wind_Direction
270 273 276 282 284 283 282 280 278 276 277 279 281 281 281 278 276 276 273 271 270 268 268 266 266 266 266 267 268 270 271 272 273 274 276 278 280 280 281 283 279 278 274 269
275 276 286 288 287 287 287 285 283 282 282 284 284 282 281 279 278 277 275 273 273 271 269 267 265 264 264 265 267 268 270 271 271 272 273 275 277 277 278 281 280 279 276 274
281 294 298 296 294 295 295 291 291 290 288 287 286 283 281 281 280 277 274 273 273 270 268 267 265 263 262 263 264 265 267 268 269 270 271 272 272 274 276 280 280 281 280 279
293 301 301 301 301 302 300 297 297 295 292 290 288 285 281 275 273 274 275 274 268 267 266 264 263 261 260 260 260 261 263 265 267 268 268 269 269 270 273 277 279 281 282 280
306 310 308 307 308 307 305 303 300 298 294 292 289 285 278 269 266 268 268 266 263 264 264 264 262 260 258 257 257 259 260 262 264 266 267 267 268 269 270 273 277 278 279 280
309 312 314 313 314 314 312 310 308 305 302 298 295 286 274 266 264 262 262 264 263 266 264 263 261 258 255 254 254 256 258 260 262 264 265 265 267 268 268 270 273 276 278 280
319 318 321 320 318 318 318 318 316 313 307 296 289 279 272 268 266 263 260 263 266 269 265 262 258 256 254 253 253 254 256 259 261 263 265 266 266 265 267 269 272 274 275 276
321 321 329 326 324 325 325 326 326 322 314 299 290 282 277 274 272 270 262 264 265 264 264 261 257 254 253 253 254 256 257 259 260 262 264 265 266 267 267 269 271 271 271 272
327 325 330 329 329 332 333 335 334 331 325 316 306 298 291 288 285 281 275 270 270 269 265 261 258 254 252 252 255 257 258 260 262 264 265 266 267 267 267 267 269 269 268 271
334 333 339 342 342 343 346 348 349 346 343 333 320 311 307 304 301 296 288 279 276 276 270 263 258 256 255 255 257 258 259 261 262 263 264 265 266 267 266 266 267 268 269 271
344 345 349 352 354 355 356 358 359 358 354 347 338 333 329 326 326 320 307 294 279 275 272 267 262 260 259 259 260 262 263 263 262 263 264 263 264 265 266 264 266 266 265 267
359 356 356 0 1 2 4 5 7 8 6 2 357 351 347 347 346 342 335 320 297 278 268 267 263 258 259 257 260 262 262 262 262 263 264 261 260 261 259 259 261 260 258 257
5 2 4 8 10 10 10 11 13 17 16 14 12 8 4 3 5 10 11 1 352 321 263 266 268 264 263 265 261 258 256 254 255 255 257 257 252 251 251 255 251 250 252 245
10 11 14 14 14 11 12 16 19 21 23 25 24 23 23 24 32 37 35 39 47 53 73 75 86 118 107 104 108 145 150 176 184 199 215 210 214 211 213 234 240 244 247 250
18 19 20 20 19 17 18 20 22 24 24 24 29 35 39 43 47 46 49 53 56 58 62 66 73 82 80 79 75 76 75 74 75 74 85 80 72 67 36 2 330 301 286 276
24 24 24 25 23 21 24 25 26 27 29 32 36 42 45 48 49 50 51 52 55 56 56 57 62 66 68 69 69 67 64 65 63 61 58 48 34 15 353 335 320 310 300 290
24 24 24 26 25 24 27 26 27 29 34 39 43 46 46 48 48 50 50 51 54 57 57 57 56 58 59 61 60 58 56 54 51 46 40 29 17 2 347 334 324 314 305 299
25 25 26 28 28 29 25 25 27 31 38 44 47 48 48 49 48 49 49 49 50 51 53 54 55 55 54 54 53 51 49 46 43 38 31 23 14 3 352 341 332 323 314 306
27 27 27 28 31 30 26 25 28 32 38 42 44 44 45 45 47 48 47 46 47 49 51 51 52 52 51 50 49 47 45 43 41 37 31 25 17 8 359 349 340 333 326 319
29 27 25 25 28 28 27 27 29 32 37 38 41 42 41 42 44 45 44 44 45 46 47 48 48 48 48 48 48 46 45 43 41 37 32 26 20 14 8 2 355 347 339 332
27 25 23 22 24 26 25 27 29 32 33 36 38 40 40 41 42 42 41 43 44 45 45 44 44 44 45 46 48 48 47 45 42 38 34 29 24 20 17 13 8 1 354 347
25 22 21 21 22 24 23 26 30 32 33 35 36 37 39 39 40 41 42 43 43 44 44 44 44 45 47 49 50 50 48 46 42 38 34 30 27 24 21 18 14 10 6 2
24 22 20 22 24 25 27 28 30 31 33 35 35 35 36 37 38 40 42 43 43 44 44 44 45 48 50 51 51 48 46 43 40 35 32 30 28 27 25 22 19 17 15 12
21 21 21 21 22 24 26 26 28 29 31 33 33 34 35 37 40 43 44 44 45 45 46 47 49 50 50 49 47 46 43 42 39 36 33 31 30 28 27 25 23 21 19 18
11 14 16 18 19 21 23 23 24 25 27 31 33 35 37 39 42 44 45 46 46 48 49 51 51 50 49 47 44 41 40 38 36 34 32 31 30 28 27 26 26 25 24 23
354 2 6 10 13 17 19 20 21 23 26 29 31 33 35 38 42 45 47 49 50 50 50 49 49 48 46 43 41 39 37 35 33 31 30 29 28 28 28 27 27 28 28 28
Height
5883 5883 5881 5881 5880 5880 5878 5877 5876 5875 5872 5870 5870 5869 5867 5865 5864 5864 5864 5864 5863 5863 5864 5865 5867 5868 5868 5869 5870 5871 5871 5873 5873 5874 5874 5873 5873 5873 5873 5873 5873 5873 5873 5874
5880 5879 5878 5877 5876 5874 5872 5870 5869 5867 5865 5862 5861 5861 5859 5854 5854 5854 5854 5853 5853 5854 5854 5855 5857 5859 5860 5861 5862 5863 5863 5865 5866 5866 5867 5867 5865 5865 5867 5867 5867 5867 5867 5867
5876 5876 5874 5873 5871 5869 5866 5863 5861 5859 5857 5854 5852 5850 5850 5845 5843 5842 5843 5842 5842 5842 5843 5844 5846 5848 5850 5851 5853 5854 5855 5856 5857 5858 5859 5859 5858 5857 5858 5860 5860 5860 5860 5860
5874 5873 5871 5868 5866 5863 5860 5856 5853 5850 5847 5846 5843 5840 5840 5835 5831 5831 5832 5831 5830 5829 5831 5833 5835 5837 5839 5841 5843 5844 5845 5847 5848 5849 5850 5850 5849 5848 5849 5851 5852 5853 5853 5853
5870 5869 5866 5863 5860 5856 5853 5849 5845 5841 5837 5835 5833 5830 5829 5825 5822 5822 5821 5819 5818 5818 5820 5822 5824 5827 5829 5831 5833 5834 5836 5837 5838 5840 5841 5841 5841 5839 5840 5842 5843 5844 5845 5846
5867 5865 5862 5858 5854 5850 5845 5842 5837 5833 5828 5826 5824 5822 5818 5815 5814 5813 5812 5809 5808 5808 5810 5812 5815 5817 5818 5820 5823 5825 5827 5828 5830 5831 5832 5833 5833 5833 5833 5834 5835 5836 5837 5837
5862 5859 5857 5853 5848 5844 5840 5835 5830 5826 5822 5820 5816 5813 5810 5807 5805 5804 5803 5801 5799 5800 5802 5804 5805 5807 5809 5811 5813 5815 5818 5819 5821 5822 5823 5824 5825 5826 5826 5826 5827 5828 5829 5829
5860 5855 5852 5847 5844 5839 5835 5830 5825 5820 5817 5814 5810 5807 5804 5800 5798 5795 5794 5793 5792 5792 5793 5795 5796 5798 5800 5803 5805 5807 5809 5811 5812 5814 5815 5816 5817 5817 5818 5819 5820 5820 5820 5820
5857 5852 5849 5844 5840 5836 5831 5826 5821 5816 5812 5809 5806 5802 5799 5795 5792 5788 5785 5785 5786 5786 5786 5787 5788 5790 5793 5795 5796 5798 5800 5802 5804 5805 5806 5807 5808 5809 5810 5811 5811 5810 5811 5811
5854 5850 5846 5842 5837 5833 5828 5823 5818 5813 5809 5806 5804 5799 5795 5791 5787 5784 5781 5781 5781 5780 5780 5781 5782 5784 5786 5788 5789 5791 5792 5794 5795 5797 5798 5799 5800 5801 5801 5802 5803 5803 5803 5804
5851 5848 5843 5839 5835 5831 5827 5822 5817 5812 5808 5805 5801 5800 5793 5788 5785 5781 5779 5778 5777 5776 5776 5777 5778 5779 5781 5782 5784 5785 5786 5787 5789 5790 5791 5791 5793 5793 5794 5794 5795 5796 5796 5797
5850 5847 5842 5838 5835 5831 5827 5822 5818 5814 5809 5805 5802 5801 5793 5789 5785 5781 5779 5777 5776 5775 5775 5775 5776 5776 5777 5778 5779 5781 5782 5782 5783 5784 5785 5786 5786 5788 5788 5789 5790 5790 5791 5792
5850 5847 5842 5838 5836 5832 5827 5823 5819 5815 5811 5807 5803 5802 5795 5791 5787 5783 5781 5779 5777 5776 5775 5775 5775 5775 5776 5776 5777 5778 5779 5780 5780 5781 5782 5782 5783 5784 5785 5786 5787 5787 5788 5789
5850 5846 5843 5839 5835 5832 5828 5824 5820 5817 5813 5809 5806 5802 5797 5793 5790 5787 5784 5782 5780 5779 5778 5777 5776 5776 5776 5777 5777 5777 5778 5779 5779 5780 5781 5781 5782 5783 5783 5784 5785 5785 5786 5787
5852 5847 5843 5840 5836 5833 5829 5826 5822 5819 5815 5812 5809 5805 5801 5798 5794 5791 5789 5787 5785 5783 5782 5780 5780 5779 5779 5779 5779 5779 5780 5780 5781 5781 5781 5782 5783 5783 5783 5784 5784 5785 5785 5785
5853 5849 5845 5842 5838 5835 5832 5828 5825 5821 5818 5815 5812 5809 5805 5802 5799 5796 5794 5792 5790 5789 5787 5785 5784 5784 5783 5783 5783 5783 5783 5783 5783 5783 5784 5784 5784 5784 5784 5783 5783 5783 5783 5783
5855 5851 5847 5843 5840 5837 5834 5831 5827 5824 5821 5819 5816 5814 5810 5807 5805 5802 5800 5798 5796 5794 5792 5791 5790 5789 5788 5787 5787 5786 5786 5786 5786 5785 5785 5785 5785 5784 5783 5782 5782 5781 5780 5779
5857 5853 5849 5846 5843 5839 5839 5833 5830 5828 5825 5822 5819 5817 5814 5812 5810 5807 5804 5802 5801 5799 5797 5796 5794 5793 5792 5791 5791 5790 5789 5788 5788 5787 5786 5786 5785 5784 5782 5781 5780 5778 5777 5775
5859 5856 5852 5848 5845 5842 5839 5836 5833 5831 5829 5826 5823 5821 5819 5816 5814 5811 5809 5807 5805 5803 5802 5800 5799 5797 5796 5795 5794 5793 5792 5790 5789 5788 5787 5786 5784 5783 5781 5779 5777 5775 5773 5771
5861 5858 5855 5851 5847 5845 5843 5839 5836 5835 5832 5830 5827 5825 5823 5820 5818 5816 5813 5811 5809 5807 5806 5804 5803 5801 5800 5798 5797 5796 5794 5793 5792 5790 5789 5787 5785 5783 5780 5778 5775 5773 5770 5768
5864 5860 5857 5853 5850 5847 5845 5841 5839 5838 5837 5833 5831 5829 5826 5824 5822 5820 5817 5815 5813 5811 5809 5808 5806 5804 5803 5801 5800 5798 5797 5796 5794 5792 5790 5788 5786 5783 5780 5777 5774 5771 5768 5765
5865 5862 5859 5856 5852 5852 5847 5844 5842 5841 5837 5836 5834 5832 5830 5828 5825 5823 5821 5819 5817 5815 5813 5811 5810 5808 5806 5805 5803 5801 5800 5798 5797 5795 5792 5790 5787 5784 5781 5778 5774 5771 5767 5764
5867 5865 5861 5859 5857 5853 5849 5847 5845 5842 5840 5838 5837 5835 5833 5831 5829 5827 5825 5823 5821 5819 5817 5815 5813 5812 5810 5808 5807 5805 5803 5801 5799 5797 5795 5792 5789 5786 5783 5779 5775 5772 5768 5764
5869 5866 5863 5860 5858 5855 5852 5849 5847 5845 5843 5841 5839 5838 5836 5834 5832 5830 5828 5826 5825 5823 5821 5819 5817 5816 5814 5812 5811 5809 5807 5805 5803 5800 5798 5795 5792 5788 5785 5781 5777 5773 5769 5765
5870 5867 5865 5863 5860 5857 5855 5852 5850 5847 5845 5843 5842 5840 5838 5837 5835 5834 5832 5830 5828 5827 5825 5823 5821 5820 5818 5816 5814 5812 5810 5808 5806 5803 5801 5798 5794 5791 5788 5784 5780 5775 5771 5767
5870 5868 5866 5865 5862 5860 5857 5854 5852 5850 5847 5845 5844 5842 5841 5839 5838 5836 5835 5833 5832 5830 5829 5827 5825 5823 5822 5820 5818 5816 5813 5811 5809 5806 5803 5801 5797 5794 5791 5787 5783 5778 5774 5769